This is the latest recevied weather packets stored in our database for station/object YO6LRV-6. If no packets are shown the sender has not sent any weather packets the latest 10 day(s).
| Time | Temp. | Humidity | Pressure | Rain* | Wind** | Luminosity | Snow |
|---|---|---|---|---|---|---|---|
| 1777814553 | 17.78° C | 31% | 1038.1 hPa | - | - | - | - |
| 1777813653 | 16.67° C | 28% | 1038.2 hPa | - | - | - | - |
| 1777812753 | 16.11° C | 30% | 1038.1 hPa | - | - | - | - |
| 1777811853 | 16.11° C | 31% | 1038.3 hPa | - | - | - | - |
| 1777810955 | 17.22° C | 29% | 1038.5 hPa | - | - | - | - |
| 1777810055 | 17.22° C | 30% | 1038.7 hPa | - | - | - | - |
| 1777809155 | 16.67° C | 28% | 1038.7 hPa | - | - | - | - |
| 1777808255 | 15° C | 29% | 1039.1 hPa | - | - | - | - |
| 1777807355 | 15.56° C | 32% | 1039.3 hPa | - | - | - | - |
| 1777806455 | 16.11° C | 32% | 1039.3 hPa | - | - | - | - |
| 1777805554 | 15° C | 30% | 1039.6 hPa | - | - | - | - |
| 1777804654 | 13.89° C | 30% | 1039.7 hPa | - | - | - | - |
| 1777803754 | 14.44° C | 33% | 1039.9 hPa | - | - | - | - |
| 1777802854 | 15.56° C | 29% | 1040.1 hPa | - | - | - | - |
| 1777801954 | 17.22° C | 25% | 1040.1 hPa | - | - | - | - |
| 1777801054 | 16.11° C | 34% | 1040.3 hPa | - | - | - | - |
| 1777800154 | 16.67° C | 31% | 1040.4 hPa | - | - | - | - |
| 1777799254 | 13.89° C | 30% | 1040.6 hPa | - | - | - | - |
| 1777798353 | 15° C | 31% | 1040.5 hPa | - | - | - | - |
| 1777797453 | 13.89° C | 33% | 1040.7 hPa | - | - | - | - |
| 1777796553 | 12.78° C | 34% | 1040.8 hPa | - | - | - | - |
| 1777795653 | 12.22° C | 32% | 1040.9 hPa | - | - | - | - |
| 1777794753 | 11.67° C | 35% | 1040.9 hPa | - | - | - | - |
| 1777793853 | 11.11° C | 42% | 1040.9 hPa | - | - | - | - |
| 1777792953 | 11.11° C | 48% | 1041 hPa | - | - | - | - |
* Rain since midnight (hover to see other rain measurements)
** Current wind speed in m/s (hover to see current wind gust speed)